Weather History for Menominee, MI

Change the Weather History Date:

Sunday, October 27, 2013

  Actual Average Record
Temperature  
Mean Temperature 42 °F -  
Max Temperature 50 °F 56 °F 74 °F (1989)
Min Temperature 35 °F 37 °F 22 °F (1988)
Degree Days  
Heating Degree Days 22    
Moisture  
Dew Point 30 °F    
Average Humidity 64    
Maximum Humidity 87    
Minimum Humidity 43    
Precipitation  
Precipitation 0.00 in - - ()
Sea Level Pressure  
Sea Level Pressure 29.92 in    
Wind  
Wind Speed 5 mph (West)    
Max Wind Speed 16 mph    
Max Gust Speed 23 mph    
Visibility 10 miles    
Events      
Averages and records for this station are not official NWS values.
T = Trace of Precipitation, MM = Missing Value Source: NWS Daily Summary

Daily Weather History Graph

Daily Weather History Graph

Search for Another Location

Airport:

Trip Planner

Search our weather history database for the weather conditions in past years. The results will help you decide how hot, cold, wet, or windy it might be!

Date:

Astronomy

Oct. 27, 2013 Rise Set
Actual Time 7:22 AM CDT 5:45 PM CDT
Civil Twilight 6:52 AM CDT 6:15 PM CDT
Nautical Twilight 6:17 AM CDT 6:50 PM CDT
Astronomical Twilight 5:43 AM CDT 7:24 PM CDT
Moon 12:01 AM CDT (10/27) 2:10 PM CDT (10/27)
Length of Visible Light 11h 23m
Length of Day
10h 22m
Last Quarter, 43% of the Moon is Illuminated
Oct 27
Last Quarter
Nov 3
New
Nov 9
First Quarter
Nov 17
Full
Nov 25
Last Quarter

Hourly Weather History & Observations

Time (CDT) Temp. Windchill Dew Point Humidity Pressure Visibility Wind Dir Wind Speed Gust Speed Precip Events Conditions
12:15 AM 35.6 °F 32.8 °F 26.6 °F 70% 29.98 in 10.0 mi West 3.5 mph - N/A   Clear
12:35 AM 35.6 °F 31.7 °F 26.6 °F 70% 29.98 in 10.0 mi West 4.6 mph - N/A   Partly Cloudy
12:55 AM 35.6 °F 32.8 °F 26.6 °F 70% 29.98 in 10.0 mi West 3.5 mph - N/A   Mostly Cloudy
1:15 AM 37.4 °F 33.8 °F 26.6 °F 65% 29.97 in 10.0 mi WSW 4.6 mph - N/A   Overcast
1:35 AM 37.4 °F 33.8 °F 26.6 °F 65% 29.97 in 10.0 mi West 4.6 mph - N/A   Overcast
1:55 AM 37.4 °F 33.8 °F 28.4 °F 70% 29.97 in 10.0 mi West 4.6 mph - N/A   Overcast
2:15 AM 37.4 °F 34.9 °F 28.4 °F 70% 29.97 in 10.0 mi West 3.5 mph - N/A   Overcast
2:35 AM 37.4 °F 34.9 °F 28.4 °F 70% 29.97 in 10.0 mi West 3.5 mph - N/A   Overcast
2:55 AM 37.4 °F 34.9 °F 28.4 °F 70% 29.96 in 10.0 mi West 3.5 mph - N/A   Overcast
3:15 AM 35.6 °F 32.8 °F 28.4 °F 75% 29.95 in 10.0 mi West 3.5 mph - N/A   Overcast
3:35 AM 35.6 °F - 28.4 °F 75% 29.95 in 10.0 mi Calm Calm - N/A   Overcast
3:55 AM 35.6 °F 32.8 °F 28.4 °F 75% 29.95 in 10.0 mi WSW 3.5 mph - N/A   Overcast
4:15 AM 35.6 °F 32.8 °F 28.4 °F 75% 29.94 in 10.0 mi WSW 3.5 mph - N/A   Overcast
4:35 AM 37.4 °F 34.9 °F 28.4 °F 70% 29.94 in 10.0 mi WSW 3.5 mph - N/A   Overcast
4:55 AM 37.4 °F 33.8 °F 28.4 °F 70% 29.94 in 10.0 mi WSW 4.6 mph - N/A   Overcast
5:15 AM 37.4 °F - 28.4 °F 70% 29.94 in 10.0 mi Calm Calm - N/A   Overcast
5:35 AM 35.6 °F - 28.4 °F 75% 29.93 in 10.0 mi Calm Calm - N/A   Overcast
5:55 AM 35.6 °F - 28.4 °F 75% 29.94 in 10.0 mi Calm Calm - N/A   Overcast
6:15 AM 35.6 °F - 28.4 °F 75% 29.94 in 10.0 mi Calm Calm - N/A   Overcast
6:35 AM 35.6 °F 31.7 °F 28.4 °F 75% 29.93 in 10.0 mi SW 4.6 mph - N/A   Overcast
6:55 AM 35.6 °F 29.9 °F 28.4 °F 75% 29.93 in 10.0 mi SW 6.9 mph - N/A   Overcast
7:15 AM 35.6 °F 30.7 °F 28.4 °F 75% 29.93 in 10.0 mi WSW 5.8 mph - N/A   Overcast
7:35 AM 35.6 °F 30.7 °F 28.4 °F 75% 29.92 in 10.0 mi WSW 5.8 mph - N/A   Mostly Cloudy
7:55 AM 35.6 °F 29.9 °F 30.2 °F 81% 29.92 in 10.0 mi SW 6.9 mph - N/A   Mostly Cloudy
8:15 AM 35.6 °F 30.7 °F 30.2 °F 81% 29.92 in 10.0 mi WSW 5.8 mph - N/A   Mostly Cloudy
8:35 AM 37.4 °F 32.8 °F 30.2 °F 75% 29.92 in 10.0 mi West 5.8 mph - N/A   Overcast
8:55 AM 39.2 °F 33.6 °F 30.2 °F 70% 29.92 in 10.0 mi West 8.1 mph - N/A   Overcast
9:15 AM 39.2 °F 34.2 °F 30.2 °F 70% 29.92 in 10.0 mi WSW 6.9 mph - N/A   Overcast
9:35 AM 39.2 °F 34.2 °F 30.2 °F 70% 29.92 in 10.0 mi West 6.9 mph - N/A   Mostly Cloudy
9:55 AM 41.0 °F 35.2 °F 30.2 °F 65% 29.92 in 10.0 mi WSW 9.2 mph - N/A   Mostly Cloudy
10:15 AM 42.8 °F 37.5 °F 30.2 °F 61% 29.91 in 10.0 mi SW 9.2 mph - N/A   Overcast
10:35 AM 42.8 °F 37.5 °F 28.4 °F 57% 29.91 in 10.0 mi WSW 9.2 mph 17.3 mph N/A   Overcast
10:55 AM 42.8 °F 37.0 °F 30.2 °F 61% 29.90 in 10.0 mi WSW 10.4 mph 17.3 mph N/A   Scattered Clouds
11:15 AM 44.6 °F 37.8 °F 30.2 °F 57% 29.89 in 10.0 mi SW 15.0 mph 23.0 mph N/A   Clear
11:35 AM 44.6 °F 39.7 °F 30.2 °F 57% 29.89 in 10.0 mi SW 9.2 mph 21.9 mph N/A   Partly Cloudy
11:55 AM 46.4 °F 41.1 °F 30.2 °F 53% 29.88 in 10.0 mi WSW 11.5 mph 17.3 mph N/A   Partly Cloudy
12:15 PM 46.4 °F 40.4 °F 30.2 °F 53% 29.87 in 10.0 mi SW 13.8 mph 20.7 mph N/A   Clear
12:35 PM 46.4 °F 41.5 °F 30.2 °F 53% 29.86 in 10.0 mi West 10.4 mph 17.3 mph N/A   Clear
12:55 PM 46.4 °F 41.5 °F 28.4 °F 50% 29.85 in 10.0 mi West 10.4 mph 16.1 mph N/A   Clear
1:15 PM 48.2 °F - 28.4 °F 46% 29.83 in 10.0 mi WSW 10.4 mph 18.4 mph N/A   Clear
1:35 PM 46.4 °F 40.7 °F 28.4 °F 50% 29.83 in 10.0 mi SW 12.7 mph 19.6 mph N/A   Clear
1:55 PM 48.2 °F - 28.4 °F 46% 29.81 in 10.0 mi WSW 13.8 mph 20.7 mph N/A   Clear
2:15 PM 48.2 °F - 26.6 °F 43% 29.82 in 10.0 mi West 10.4 mph 18.4 mph N/A   Scattered Clouds
2:35 PM 48.2 °F - 28.4 °F 46% 29.82 in 10.0 mi SW 13.8 mph 18.4 mph N/A   Scattered Clouds
2:55 PM 48.2 °F - 28.4 °F 46% 29.81 in 10.0 mi SW 16.1 mph - N/A   Partly Cloudy
3:15 PM 48.2 °F - 28.4 °F 46% 29.81 in 10.0 mi SW 12.7 mph 19.6 mph N/A   Clear
3:35 PM 48.2 °F - 28.4 °F 46% 29.82 in 10.0 mi SW 12.7 mph 16.1 mph N/A   Clear
3:55 PM 48.2 °F - 28.4 °F 46% 29.82 in 10.0 mi WSW 8.1 mph 16.1 mph N/A   Clear
4:15 PM 48.2 °F - 28.4 °F 46% 29.82 in 10.0 mi West 4.6 mph - N/A   Clear
4:35 PM 48.2 °F - 30.2 °F 50% 29.83 in 10.0 mi SW 6.9 mph - N/A   Clear
4:55 PM 48.2 °F - 32.0 °F 54% 29.83 in 10.0 mi SSW 3.5 mph - N/A   Clear
5:15 PM 50.0 °F - 32.0 °F 50% 29.83 in 10.0 mi Calm Calm - N/A   Clear
5:35 PM 46.4 °F - 32.0 °F 57% 29.84 in 10.0 mi Calm Calm - N/A   Scattered Clouds
5:55 PM 46.4 °F - 32.0 °F 57% 29.85 in 10.0 mi Calm Calm - N/A   Mostly Cloudy
6:15 PM 42.8 °F - 33.8 °F 70% 29.86 in 10.0 mi Calm Calm - N/A   Partly Cloudy
6:35 PM 41.0 °F - 33.8 °F 76% 29.86 in 10.0 mi Calm Calm - N/A   Clear
6:55 PM 39.2 °F - 33.8 °F 81% 29.87 in 10.0 mi Calm Calm - N/A   Clear
7:15 PM 39.2 °F - 33.8 °F 81% 29.88 in 10.0 mi Calm Calm - N/A   Clear
7:35 PM 37.4 °F - 32.0 °F 81% 29.89 in 10.0 mi Calm Calm - N/A   Partly Cloudy
7:55 PM 37.4 °F - 33.8 °F 87% 29.90 in 10.0 mi Calm Calm - N/A   Mostly Cloudy
8:15 PM 39.2 °F 37.0 °F 33.8 °F 81% 29.91 in 10.0 mi West 3.5 mph - N/A   Overcast
8:35 PM 42.8 °F 38.0 °F 33.8 °F 70% 29.93 in 10.0 mi North 8.1 mph - N/A   Overcast
8:55 PM 42.8 °F 37.0 °F 32.0 °F 66% 29.95 in 10.0 mi North 10.4 mph - N/A   Overcast
9:15 PM 46.4 °F 41.1 °F 32.0 °F 57% 29.97 in 10.0 mi North 11.5 mph 18.4 mph N/A   Overcast
9:35 PM 44.6 °F 38.4 °F 30.2 °F 57% 29.98 in 10.0 mi North 12.7 mph 17.3 mph N/A   Overcast
9:55 PM 44.6 °F 39.7 °F 30.2 °F 57% 30.00 in 10.0 mi North 9.2 mph - N/A   Overcast
10:15 PM 42.8 °F 38.6 °F 30.2 °F 61% 30.01 in 10.0 mi North 6.9 mph - N/A   Overcast
10:35 PM 42.8 °F 38.6 °F 30.2 °F 61% 30.03 in 10.0 mi North 6.9 mph - N/A   Overcast
10:55 PM 42.8 °F 38.0 °F 30.2 °F 61% 30.04 in 10.0 mi North 8.1 mph - N/A   Scattered Clouds
11:15 PM 42.8 °F 38.6 °F 30.2 °F 61% 30.05 in 10.0 mi North 6.9 mph - N/A   Scattered Clouds
11:35 PM 42.8 °F 37.5 °F 30.2 °F 61% 30.06 in 10.0 mi North 9.2 mph - N/A   Overcast
11:55 PM 42.8 °F 35.4 °F 30.2 °F 61% 30.07 in 10.0 mi NNE 15.0 mph 21.9 mph N/A   Overcast